This demonstration page uses our WeatherBlox Daily Observations layout. Learn more.

Left ArrowRight Arrow

40.92945, -100.16068

Hourly Observations for April 24, 2015

Temp ( °F °C ) Dew Point ( °F °C ) Humidity (%) Winds ( mph kmh ) Pressure ( in mb ) Visibility ( mi km ) Precip ( " mm )
12:15 am 00:15 Cloudy 56 13.1 50 9.8 81 81 SSW 9 15 29.80 1009 10 16 N/A
12:35 am 00:35 Partly Cloudy 54 12.2 49 9.5 84 84 S 10 17 29.77 1008 10 16 N/A
12:55 am 00:55 Clear 54 12.4 49 9.6 83 83 SSE 17 28 29.74 1007 10 16 N/A
1:15 am 01:15 Clear 55 13 49 9.5 79 79 SSE 20 31 29.71 1006 10 16 N/A
1:35 am 01:35 Clear 56 13.3 49 9.5 78 78 SSE 21 33 29.71 1006 10 16 N/A
1:55 am 01:55 Clear 56 13.2 49 9.4 78 78 S 20 31 29.71 1006 10 16 N/A
2:15 am 02:15 Clear 56 13.5 50 9.8 79 79 S 16 26 29.68 1005 10 16 N/A
2:35 am 02:35 Clear 56 13.6 50 10.2 80 80 S 18 30 29.65 1004 10 16 N/A
2:55 am 02:55 Clear 56 13.4 50 10.2 81 81 SSE 16 26 29.68 1005 10 16 N/A
3:15 am 03:15 Clear 55 13 50 10.2 83 83 SE 14 22 29.68 1005 10 16 N/A
3:35 am 03:35 Clear 55 12.9 50 10.1 83 83 E 8 13 29.68 1005 10 16 N/A
3:55 am 03:55 Clear 55 12.8 50 10 83 83 WNW 3 6 29.68 1005 10 16 N/A
4:15 am 04:15 Clear 55 12.8 49 9.5 81 81 W 7 11 29.68 1005 10 16 N/A
4:35 am 04:35 Clear 54 12 48 9.1 83 83 WSW 6 9 29.68 1005 10 16 N/A
4:55 am 04:55 Clear 51 10.8 47 8.1 84 84 SW 7 11 29.68 1005 10 16 N/A
5:15 am 05:15 Clear 53 11.6 48 9.1 85 85 SW 5 7 29.68 1005 10 16 N/A
5:35 am 05:35 Clear 51 10.8 48 8.9 88 88 SW 5 7 29.68 1005 10 16 N/A
5:55 am 05:55 Clear 51 10.6 48 9 90 90 SSW 3 6 29.68 1005 10 16 N/A
6:15 am 06:15 Clear 51 10.5 47 8.6 88 88 SW 3 6 29.68 1005 10 16 N/A
6:35 am 06:35 Clear 49 9.5 46 8 90 90 W 3 6 29.71 1006 10 16 N/A
6:55 am 06:55 Sunny 49 9.5 47 8.3 92 92 SW 5 7 29.71 1006 7 11 N/A
7:15 am 07:15 Sunny with Mist and Fog 48 9 46 7.9 93 93 S 5 7 29.71 1006 5 8 N/A
7:35 am 07:35 Sunny with Mist and Fog 48 9.1 47 8.2 94 94 SSE 5 7 29.71 1006 5 8 N/A
7:55 am 07:55 Sunny with Mist and Fog 49 9.5 47 8.6 94 94 N N/A 29.71 1006 5 8 N/A
8:15 am 08:15 Partly Cloudy 51 10.7 49 9.7 94 94 S 6 9 29.68 1005 7 11 N/A
8:35 am 08:35 Cloudy 53 11.5 50 10.2 92 92 S 6 9 29.68 1005 7 11 N/A
8:55 am 08:55 Cloudy 53 11.7 51 10.3 91 91 SSE 7 11 29.68 1005 10 16 N/A
9:15 am 09:15 Cloudy 54 12.4 51 10.7 89 89 SSE 8 13 29.68 1005 10 16 N/A
9:35 am 09:35 Cloudy 55 13 52 11.2 89 89 SE 7 11 29.68 1005 10 16 N/A
9:55 am 09:55 Cloudy 58 14.3 54 12.3 88 88 S 9 15 29.65 1004 10 16 N/A
10:15 am 10:15 Cloudy 59 15 55 12.8 87 87 S 12 19 29.65 1004 10 16 N/A
10:35 am 10:35 Cloudy 60 15.6 56 13.1 85 85 SSW 10 17 29.65 1004 10 16 N/A
10:55 am 10:55 Mostly Cloudy 61 16.2 56 13.1 82 82 SSW 13 20 29.62 1003 10 16 N/A
11:15 am 11:15 Mostly Cloudy 64 17.6 57 14 80 80 S 13 20 29.59 1002 10 16 N/A
11:35 am 11:35 Cloudy 62 16.7 55 13 79 79 SSW 8 13 29.59 1002 10 16 N/A
11:55 am 11:55 Mostly Cloudy 64 17.7 56 13.4 76 76 S 6 9 29.59 1002 10 16 N/A
12:15 pm 12:15 Mostly Cloudy 65 18.3 56 13.1 72 72 S 8 13 29.59 1002 10 16 N/A
12:35 pm 12:35 Cloudy 64 18 55 12.9 72 72 S 8 13 29.59 1002 10 16 N/A
12:55 pm 12:55 Cloudy 64 18 55 12.8 72 72 S 7 11 29.56 1001 10 16 N/A
1:15 pm 13:15 Cloudy 65 18.3 56 13.2 72 72 S 8 13 29.56 1001 10 16 N/A
1:35 pm 13:35 Cloudy 65 18.5 55 13 71 71 SSE 7 11 29.56 1001 10 16 N/A
1:55 pm 13:55 Cloudy 65 18.6 55 12.8 69 69 S 7 11 29.53 1000 10 16 N/A
2:15 pm 14:15 Mostly Cloudy 66 18.7 55 12.8 69 69 S 7 11 29.53 1000 10 16 N/A
2:35 pm 14:35 Mostly Cloudy 67 19.7 55 12.9 65 65 SSE 6 9 29.50 999 10 16 N/A
2:55 pm 14:55 Partly Cloudy 67 19.5 55 12.8 65 65 SSE 6 9 29.47 998 10 16 N/A
3:15 pm 15:15 Partly Cloudy 68 20 55 12.7 63 63 SSE 6 9 29.47 998 10 16 N/A
3:35 pm 15:35 Cloudy 67 19.3 55 12.8 66 66 SE 7 11 29.50 999 10 16 N/A
3:55 pm 15:55 Cloudy 67 19.3 55 12.7 66 66 SSE 7 11 29.50 999 10 16 N/A
4:15 pm 16:15 Cloudy 67 19.3 54 12.1 63 63 SE 3 6 29.50 999 10 16 N/A
4:35 pm 16:35 Partly Cloudy 68 20.2 55 12.5 61 61 SE 5 7 29.44 997 10 16 N/A
4:55 pm 16:55 Partly Cloudy 68 19.8 54 12.1 61 61 SSE 3 6 29.44 997 10 16 N/A
5:15 pm 17:15 Mostly Cloudy 68 20.1 55 12.6 62 62 N N/A 29.44 997 10 16 N/A
5:35 pm 17:35 Partly Cloudy 68 20.2 53 11.9 59 59 N N/A 29.44 997 10 16 N/A
5:55 pm 17:55 Partly Cloudy 68 20.1 54 12.2 61 61 SSE 5 7 29.41 996 10 16 N/A
6:15 pm 18:15 Partly Cloudy 68 19.8 55 12.6 63 63 E 3 6 29.44 997 10 16 N/A
6:35 pm 18:35 Cloudy 67 19.5 55 12.9 66 66 ESE 9 15 29.41 996 10 16 N/A
6:55 pm 18:55 Partly Cloudy 66 19.1 56 13.2 69 69 ESE 15 24 29.41 996 10 16 N/A
7:15 pm 19:15 Mostly Cloudy 65 18.5 56 13.3 72 72 SE 16 26 29.41 996 10 16 N/A
7:35 pm 19:35 Mostly Cloudy 64 17.6 56 13.2 76 76 SE 14 22 29.44 997 10 16 N/A
7:55 pm 19:55 Partly Cloudy 62 16.7 56 13.2 80 80 SE 14 22 29.44 997 10 16 N/A
8:15 pm 20:15 Sunny 61 16 56 13.1 83 83 ESE 13 20 29.44 997 10 16 N/A
8:35 pm 20:35 Clear 60 15.6 56 13.1 85 85 ESE 9 15 29.44 997 7 11 N/A
8:55 pm 20:55 Clear 59 14.8 55 12.7 87 87 E 7 11 29.47 998 7 11 N/A
9:15 pm 21:15 Clear with Nearby Thunderstorms 58 14.4 55 12.8 90 90 ESE 10 17 29.47 998 7 11 N/A
9:35 pm 21:35 Mostly Cloudy 59 14.8 55 13 89 89 ESE 9 15 29.50 999 7 11 N/A
9:55 pm 21:55 Partly Cloudy 58 14.3 55 12.8 91 91 E 3 6 29.50 999 7 11 N/A
10:15 pm 22:15 Clear with Mist and Fog 56 13.2 53 11.9 92 92 ENE 7 11 29.50 999 5 8 N/A
10:35 pm 22:35 Clear with Mist and Fog 56 13.2 54 12 93 93 NNE 8 13 29.53 1000 5 8 N/A
10:55 pm 22:55 Mostly Cloudy with Mist and Fog 56 13.5 55 12.5 94 94 ENE 9 15 29.53 1000 5 8 N/A
11:15 pm 23:15 Cloudy with Thunderstorms 57 13.7 55 12.6 93 93 NE 10 17 29.50 999 5 8 N/A
11:35 pm 23:35 Cloudy with Nearby Thunderstorms 57 13.8 55 12.7 93 93 N 7 11 29.50 999 5 8 N/A
11:55 pm 23:55 Cloudy 57 13.7 54 12.4 92 92 ENE 7 11 29.50 999 7 11 N/A

Powered by AerisWeather